Tracking 18840 objects as of 17-November-2017
HD Live streaming from Space Station
objects crossing your sky now

FENGYUN 1C DEB

Track FENGYUN 1C DEB now!
10-day predictions


NORAD ID: 31432
Int'l Code: 1999-025BTU
Perigee: 417.0 km
Apogee: 536.2 km
Inclination: 99.1 °
Period: 94.0 minutes
Semi major axis: 6847 km
RCS: 0.0019 m2 (small)
Launch date: May 10, 1999
Source: People's Republic of China (PRC)
Launch site: Taiyaun Space Center, China (TSC)

Note: This is SATELLITE DEBRIS
aabbcc
Your satellite tracking list
Your tracking list is empty




NASA's NSSDC Master Catalog

Two Line Element Set (TLE):
1 31432U 99025BTU 17320.58703944 +.00014895 +00000-0 +42881-3 0  9994
2 31432 099.0500 180.8367 0087055 007.0296 353.2138 15.32137153571795
Source of the keplerian elements: AFSPC